Regional Weather Roundup
Issued by NWS Jackson, KY

Home | Current Version | Previous Version | Text Only | Print | Product List | Glossary Off
Versions: 1 2 3 4 5 6 7 8 9 10 11 12 13 14 15 16 17 18 19 20 21 22 23 24 25 26 27 28 29 30 31 32 33 34 35 36 37 38 39 40 41 42 43 44 45 46 47 48 49 50

000
ASUS43 KJKL 262210
RWRJKL

EAST KENTUCKY HOURLY WEATHER ROUNDUP
NATIONAL WEATHER SERVICE JACKSON KY
600 PM EDT SUN MAR 26 2017

NOTE: "FAIR" INDICATES FEW OR NO CLOUDS BELOW 12,000 FEET WITH
NO SIGNIFICANT WEATHER AND/OR OBSTRUCTIONS TO VISIBILITY.

* THESE REPORTS ARE NOT UNDER NWS QUALITY CONTROL AND MAY NOT
  REPORT WEATHER SUCH AS PRECIPITATION AND FOG.

KYZ079-080-083-085-087-088-110-112-115-119-120-262300
...EASTERN KENTUCKY...

CITY           SKY/WX    TMP DP  RH WIND       PRES   REMARKS
JACKSON        CLOUDY    61  58  90 CALM      29.99F
LONDON         LGT RAIN  61  57  87 SW9       29.98F
SOMERSET*      CLOUDY    68  54  60 SW8G17    29.97F
MONTICELLO*    MOSUNNY   69  57  65 SW20G29   29.98F
WILLIAMSBURG*  PTCLDY    63  63 100 SW7       29.99F
MIDDLESBORO*   PTSUNNY   70  56  62 SW10      29.99S
HARLAN APT*    CLOUDY    66  54  63 SW5       30.00S
PIKE CO APT*   CLOUDY    63  60  88 S5        29.99F
BIG SANDY APT* CLOUDY    64  60  87 CALM      29.99F
MOREHEAD APT*  MOCLDY    64  55  72 VRB6G13   29.96F
ASHLAND*       CLOUDY    63  57  82 SW6       29.94F
$$

KYZ035-036-041-042-044-050-067-078-099-262300
...CENTRAL KENTUCKY...

CITY           SKY/WX    TMP DP  RH WIND       PRES   REMARKS
MT STERLING*   CLOUDY    64  55  72 SW9       29.95F
FLEMING/MASON* PTSUNNY   66  53  63 SW9       29.94F
DANVILLE*      RAIN      64  54  68 W7        29.95S
LEXINGTON      CLOUDY    66  52  60 SW16      29.93S
FRANKFORT      CLOUDY    64  56  75 SW8       29.91R
LOUISVILLE     CLOUDY    70  48  45 SW18G26   29.89S
LEBANON*       MOCLDY    64  55  72 S13G18    29.94S
GLASGOW*       CLOUDY    66  57  72 SW7       29.93F
BOWLING GREEN  PTSUNNY   73  53  49 SW13      29.92F
$$

KYZ091>093-OHZ055-061-077-WVZ005-015-034-035-042-262300
...SOUTHERN OHIO/WEST VIRGINIA...

CITY           SKY/WX    TMP DP  RH WIND       PRES   REMARKS
COVINGTON      LGT RAIN  57  55  93 W6        29.90R
COLUMBUS       PTSUNNY   63  56  78 S10       29.91F
DAYTON         LGT RAIN  59  55  87 SW8       29.90R
WILMINGTON     PTSUNNY   64  54  69 S10       29.89F
HUNTINGTON     LGT RAIN  59  55  87 S7        29.97F
CHARLESTON     CLOUDY    61  57  87 CALM      30.00R
PINEVILLE*     HVY RAIN  64  54  68 MISG      30.10R
BECKLEY        CLOUDY    62  50  64 SE13G21   30.04S
LOGAN CO APT*  LGT RAIN  61  59  94 CALM      30.00F
$$

VAZ002-007-008-TNZ017-027-036-066-071-262300
...SOUTHWEST VIRGINIA/EAST TENNESSEE...

CITY           SKY/WX    TMP DP  RH WIND       PRES   REMARKS
WISE*          PTSUNNY   64  50  59 S13       30.04S
JONESVILLE*      N/A     70  57  64 SW9       30.02F
ABINGDON*      CLOUDY    70  50  47 W13G21    30.03S
BRISTOL        LGT RAIN  69  52  54 W13       30.03R
MORRISTOWN*    MOCLDY    70  57  64 SW7G14    29.99F
SEVIERVILLE*   PTCLDY    72  48  43 SW16      29.99R
KNOXVILLE      MOSUNNY   70  56  61 SW13      29.99S
LAFOLLETTE*    MOCLDY    72  54  53 SW8G14    30.01F
OAK RIDGE      PTSUNNY   73  55  53 VRB5G21   29.99F
CROSSVILLE     PTSUNNY   68  53  58 S9        30.01F
NASHVILLE      PTSUNNY   74  52  46 S16       29.95F
$$

...KEY TO REMARKS...
VSB - VISIBILITY IN MILES
WCI - WIND CHILL INDEX
HX  - HEAT INDEX

$$



USA.gov is the U.S. government's official web portal to all federal, state and local government web resources and services.